EW6866 Weather Reports


time (UTC)temp
F
wind
direction
speed
knots
gust
knots
rain 1hr
in
rain 24hr
in
rain mn
in
humidity
%
barometer
mb
20260502230005 52 0 0.0 0.0 0.00 0.19 0.18 93 1009.9
20260502224505 52 0 0.0 0.0 0.00 0.19 0.18 93 1010.0
20260502223025 52 0 0.0 0.0 0.00 0.19 0.18 92 1010.1
20260502221505 52 0 0.0 0.0 0.00 0.19 0.18 92 1010.0
20260502220026 53 0 0.0 0.0 0.00 0.19 0.18 91 1010.0
20260502214504 53 0 0.0 0.0 0.01 0.19 0.18 91 1010.1
20260502213004 54 0 0.0 0.0 0.01 0.19 0.18 91 1010.1
20260502211526 54 107 0.0 0.9 0.01 0.19 0.18 92 1010.1
20260502210005 54 106 0.0 0.9 0.02 0.19 0.18 91 1010.1
20260502204504 54 0 0.0 0.0 0.01 0.18 0.17 91 1009.9
20260502203004 53 98 0.0 0.9 0.02 0.18 0.17 90 1009.9
20260502201504 53 129 0.0 1.7 0.02 0.18 0.17 89 1010.0
20260502200026 53 85 0.0 0.9 0.01 0.17 0.16 90 1010.0
20260502194504 53 74 0.0 3.5 0.01 0.17 0.16 88 1009.8
20260502193004 53 81 0.0 1.7 0.00 0.16 0.15 91 1010.1
20260502191505 53 53 0.0 0.9 0.00 0.16 0.15 91 1010.5
20260502190005 53 121 0.0 3.5 0.00 0.16 0.15 90 1010.4
20260502184504 54 84 0.9 3.5 0.00 0.16 0.15 90 1010.7
20260502181505 55 70 0.9 2.6 0.02 0.16 0.15 90 1010.9
20260502163004 57 66 1.7 4.3 0.03 0.13 0.12 89 1011.1
20260502161504 57 67 0.9 3.5 0.04 0.13 0.12 93 1011.3
20260502151504 56 74 0.0 2.6 0.01 0.09 0.08 92 1012.2
20260502123003 54 124 0.0 0.9 0.02 0.06 0.05 96 1011.1
20260502121525 54 109 0.0 0.9 0.01 0.05 0.04 96 1011.2
20260502114504 54 0 0.0 0.0 0.03 0.05 0.04 96 1011.3
20260502113004 54 0 0.0 0.0 0.02 0.04 0.03 96 1011.3
20260502111503 54 0 0.0 0.0 0.03 0.04 0.03 96 1011.2
20260502110004 54 0 0.0 0.0 0.02 0.03 0.02 96 1011.1
20260502104504 54 0 0.0 0.0 0.01 0.02 0.01 96 1011.1
20260502103025 54 0 0.0 0.0 0.01 0.02 0.01 96 1011.0
20260502101504 54 0 0.0 0.0 0.00 0.01 0.00 96 1010.8
20260502091525 54 0 0.0 0.0 0.00 0.01 0.00 96 1010.7
20260502071526 54 0 0.0 0.0 0.00 0.01 0.00 95 1010.2
20260502070005 54 0 0.0 0.0 0.00 0.01 0.00 95 1010.3
20260502064506 54 0 0.0 0.0 0.00 0.01 0.00 95 1010.5
20260502063005 54 0 0.0 0.0 0.00 0.01 0.00 95 1010.5
20260502061505 54 0 0.0 0.0 0.00 0.01 0.00 95 1010.8
20260502060005 54 0 0.0 0.0 0.00 0.01 0.00 95 1011.0
20260502054505 54 0 0.0 0.0 0.00 0.01 0.00 95 1011.2
20260502053006 53 0 0.0 0.0 0.00 0.01 0.00 95 1011.4
20260502051505 53 0 0.0 0.0 0.00 0.01 0.00 94 1011.6
20260502050026 53 0 0.0 0.0 0.00 0.01 0.00 94 1011.8
20260502044505 53 0 0.0 0.0 0.00 0.01 0.00 94 1011.8
20260502043005 53 0 0.0 0.0 0.00 0.01 0.00 93 1012.0
20260502041505 54 0 0.0 0.0 0.00 0.01 0.00 93 1012.1
20260502040006 54 0 0.0 0.0 0.00 0.01 0.00 93 1012.1
20260502034505 54 0 0.0 0.0 0.00 0.01 0.01 92 1012.3
20260502033004 54 268 0.0 0.9 0.01 0.01 0.01 91 1012.3
20260502031526 54 0 0.0 0.0 0.01 0.01 0.01 90 1012.4
20260502030005 55 0 0.0 0.0 0.01 0.01 0.01 88 1012.8
20260502024504 56 0 0.0 0.0 0.01 0.01 0.01 84 1012.8
20260502023005 56 0 0.0 0.0 0.00 0.00 0.00 81 1012.9
20260502021505 56 267 0.0 0.9 0.00 0.00 0.00 79 1012.8
20260502020006 56 303 0.0 0.9 0.00 0.00 0.00 78 1013.0
20260502014504 56 287 0.0 2.6 0.00 0.00 0.00 76 1012.9
20260502013005 56 258 0.0 0.9 0.00 0.00 0.00 79 1012.9
20260502011505 56 0 0.0 0.0 0.00 0.00 0.00 78 1012.9
20260502010026 56 286 0.0 1.7 0.00 0.00 0.00 77 1012.8
20260502004505 57 271 0.0 3.5 0.00 0.00 0.00 76 1012.8
20260502003006 57 288 0.0 0.9 0.00 0.00 0.00 77 1012.8
20260502001505 57 271 0.0 0.9 0.00 0.00 0.00 77 1013.0
20260502000005 58 264 0.0 2.6 0.00 0.00 0.00 78 1012.4
20260501234526 59 279 0.0 0.9 0.00 0.00 0.00 75 1012.1
20260501233005 59 272 0.0 2.6 0.00 0.00 0.00 72 1012.1
20260501231505 59 0 0.0 0.0 0.00 0.00 0.00 72 1012.2